Temp
91 93 93 93 94 96 97 98 96 96 94 93 92 91 90 90 89 90 89 86 85 84
91 90 94 93 94 95 93 95 92 92 91 91 91 90 89 91 90 89 89 88 87 83
92 91 92 92 91 92 94 93 91 89 89 89 89 89 88 89 90 87 88 89 87 85
95 94 92 92 92 91 92 92 90 89 88 87 88 89 87 86 87 86 86 86 86 83
95 94 96 92 92 93 92 92 90 89 88 84 85 86 86 87 89 86 85 85 85 83
95 95 93 95 96 95 92 91 93 91 88 85 87 86 84 85 85 87 87 87 85 84
98 99 97 96 95 95 94 92 91 90 88 88 87 87 86 86 85 84 86 87 87 86
94 95 94 92 91 91 91 91 91 89 88 87 86 86 86 86 86 85 87 87 85 88
90 89 88 88 87 88 89 89 89 89 88 88 87 74 73 76 85 88 88 87 88 89
86 86 90 90 90 89 89 89 89 89 88 86 84 71 70 71 86 87 87 87 87 90
90 88 87 87 86 86 86 85 85 85 86 85 85 72 69 71 81 85 87 88 88 87
87 86 86 85 84 85 84 83 84 86 85 84 84 72 70 71 82 84 85 88 89 88
87 87 86 85 83 83 83 83 87 84 83 80 82 74 68 70 82 82 86 85 88 74
87 85 85 84 83 82 82 81 80 80 81 81 80 80 68 65 79 81 82 84 87 91
MSLP
1013.66 1013.67 1013.74 1013.82 1013.82 1013.74 1013.56 1013.47 1013.69 1013.92 1014.18 1014.31 1014.31 1014.43 1014.48 1014.52 1014.57 1014.40 1014.65 1014.80 1014.95 1014.70
1013.28 1013.46 1013.07 1013.31 1013.46 1013.72 1013.95 1013.88 1014.07 1014.19 1014.20 1014.13 1014.08 1014.18 1014.27 1014.17 1014.11 1014.24 1014.30 1014.22 1014.15 1014.28
1012.56 1012.99 1013.12 1013.25 1013.30 1013.31 1013.35 1013.47 1013.66 1013.88 1013.94 1013.91 1013.97 1013.94 1013.95 1013.84 1013.74 1014.00 1014.07 1013.87 1013.75 1013.75
1011.75 1012.28 1012.67 1012.83 1013.02 1013.21 1013.24 1013.27 1013.40 1013.52 1013.58 1013.53 1013.59 1013.68 1013.73 1013.70 1013.56 1013.60 1013.71 1013.77 1013.56 1013.63
1011.39 1011.92 1011.87 1012.48 1012.71 1012.71 1012.72 1012.95 1012.99 1013.02 1013.08 1013.35 1013.29 1013.32 1013.25 1013.27 1012.91 1013.01 1013.21 1013.34 1013.30 1013.41
1011.02 1011.33 1011.58 1011.66 1011.78 1011.89 1012.26 1012.58 1012.48 1012.41 1012.57 1012.78 1012.83 1012.91 1012.71 1012.88 1012.97 1012.56 1012.59 1012.67 1012.87 1012.86
1010.13 1010.33 1010.86 1011.19 1011.54 1011.65 1011.73 1012.00 1012.14 1012.05 1012.23 1012.32 1012.47 1012.40 1012.52 1012.32 1012.40 1012.42 1012.15 1012.08 1012.08 1012.28
1010.69 1010.81 1011.18 1011.51 1011.78 1011.92 1011.94 1011.88 1011.81 1011.85 1011.88 1012.11 1011.80 1012.00 1011.93 1011.99 1011.73 1011.78 1011.44 1011.55 1011.60 1011.36
1011.09 1011.30 1011.37 1011.49 1011.76 1011.74 1011.84 1011.90 1011.82 1011.65 1011.62 1011.60 1011.77 1011.93 1012.07 1011.83 1011.56 1011.03 1010.94 1010.69 1010.60 1010.62
1010.92 1011.07 1011.18 1011.32 1011.43 1011.51 1011.61 1011.62 1011.52 1011.39 1011.51 1011.65 1011.80 1012.15 1012.34 1012.23 1011.73 1011.07 1010.62 1010.40 1010.15 1009.90
1010.87 1011.27 1011.59 1011.79 1011.96 1012.07 1012.07 1012.05 1012.04 1011.88 1011.77 1011.76 1011.59 1012.12 1012.33 1012.25 1011.99 1011.05 1010.28 1009.90 1009.85 1009.71
1011.12 1011.45 1011.68 1011.87 1011.96 1012.10 1012.15 1012.03 1011.86 1011.56 1011.45 1011.47 1011.65 1012.00 1011.78 1011.99 1011.55 1010.64 1009.96 1009.35 1009.09 1009.07
1011.27 1011.53 1011.68 1012.04 1012.25 1012.12 1012.00 1011.85 1011.57 1011.54 1011.57 1011.42 1011.10 1011.12 1011.50 1011.62 1011.16 1010.37 1009.61 1009.03 1008.57 1008.33
1011.40 1011.68 1011.87 1011.96 1012.19 1012.31 1012.12 1011.86 1011.68 1011.43 1011.23 1011.04 1010.84 1010.51 1010.56 1010.83 1010.91 1010.55 1009.84 1009.12 1008.48 1007.93
Wind_Speed
13 10 10 10 8 7 6 6 5 5 7 9 10 10 9 9 8 7 6 8 9 8
11 12 10 9 8 8 8 7 8 9 10 10 10 9 9 9 8 6 7 8 9 6
13 12 11 10 10 9 9 8 7 9 10 11 11 10 8 8 8 8 6 6 7 8
12 12 12 12 11 11 12 9 8 9 10 9 10 9 9 8 8 7 8 8 8 7
8 7 9 8 12 12 11 10 9 10 9 9 9 9 10 10 9 9 10 9 8 8
12 10 10 10 10 9 10 10 11 10 10 10 10 10 9 9 10 10 10 10 10 10
8 7 6 6 7 8 8 8 9 11 10 11 10 11 10 10 10 9 10 10 11 11
1 3 4 4 5 7 8 9 10 9 10 10 10 7 11 10 10 11 11 11 10 12
3 3 4 1 3 5 5 6 8 9 9 9 7 1 4 7 9 10 11 11 11 11
6 6 3 1 1 3 4 5 6 8 8 7 7 6 2 5 9 10 12 11 12 11
5 5 4 3 3 3 4 5 6 8 8 8 5 3 1 2 10 11 12 12 12 12
6 5 3 2 2 3 5 6 7 7 7 8 9 6 4 4 10 12 12 12 12 12
5 3 2 1 3 3 5 8 7 9 10 11 10 8 5 6 9 13 12 12 12 12
4 2 2 1 3 6 7 8 9 11 10 11 13 12 9 11 7 9 10 11 12 11
Wind_Direction
215 221 219 224 250 253 267 270 335 278 262 257 257 257 259 259 245 256 259 269 256 278
215 231 231 237 214 223 233 256 263 270 273 271 263 256 264 263 264 264 273 289 285 276
214 221 235 244 234 251 265 262 255 264 265 259 259 253 245 254 244 240 263 277 302 300
207 218 224 238 233 237 247 244 251 252 258 256 252 244 236 246 272 258 257 263 276 300
197 238 250 236 239 240 246 256 251 250 251 256 250 247 237 238 245 227 238 245 253 263
197 216 231 240 232 239 242 246 268 267 252 247 253 255 247 238 245 239 243 246 250 249
207 217 230 237 242 266 257 261 266 263 264 258 256 255 252 249 242 248 251 244 247 255
239 320 341 320 297 288 282 276 265 274 273 277 277 271 264 255 254 245 246 257 250 242
198 223 229 263 263 255 280 288 293 291 292 299 294 46 331 312 281 281 274 263 262 256
191 188 168 151 7 360 332 332 317 316 317 326 317 147 257 303 282 274 261 255 263 270
153 118 112 96 43 12 352 336 328 320 321 322 346 113 290 259 285 276 272 274 270 262
146 141 126 87 32 351 334 325 315 303 314 307 304 175 202 279 299 286 286 279 267 260
145 142 113 15 315 317 304 290 310 310 304 295 287 286 244 236 291 291 291 291 276 242
144 165 207 262 293 298 298 304 291 289 285 278 270 265 226 195 257 283 296 300 296 294